User: anonymous   Login
Location: Moena
(46.3667°N, 11.6500°E)
Time: 17:18:22
(UTC+00:00)
Language:

Cosmos 2341 Rocket - Orbit

View from above orbital plane
View from above orbital plane
View from above satellite
View from above satellite

Ground track
Ground track

The orbit data is extracted from the following two-line orbital elements,

1 24773U 97017B   21129.29261951  .00000023  00000-0  84676-5 0  9998
2 24773  82.9249  39.4673 0023407 309.3504 167.5754 13.73657137205859
Epoch (UTC): 09 May 2021 07:01:22
Eccentricity: 0.0023407
inclination: 82.9249°
perigee height: 969 km
apogee height: 1004 km
right ascension of ascending node: 39.4673°
argument of perigee: 309.3504°
revolutions per day: 13.73657137
mean anomaly at epoch: 167.5754°
orbit number at epoch: 20585

The dashed part of the orbit path shows where the satellite is in the earth's shadow,  

DLR